Temperature
21 21 20 20 20 20 19 19 19 19 19 18 18 18 18 18 18 18 18 17 17 17 17 17 17 16 16 16 16 16 16 16 15 15 15 15 15 15 15 15 15 15 15
21 21 20 20 20 20 19 19 19 19 18 18 18 18 18 18 18 17 17 17 17 17 17 17 16 16 16 16 16 16 16 15 15 15 15 15 15 15 15 15 15 14 14
21 21 20 20 20 20 20 19 19 19 18 18 18 18 18 17 17 17 17 17 17 17 17 16 16 16 16 16 16 16 15 15 15 15 15 15 14 14 14 14 14 14 14
21 21 21 20 20 20 19 19 19 18 18 18 18 18 18 17 17 17 17 17 17 16 16 16 16 16 16 16 15 15 15 15 15 15 15 14 14 14 14 14 14 14 14
21 21 21 20 20 20 19 19 19 18 18 18 18 17 17 17 17 17 17 16 16 16 16 16 16 15 15 15 15 15 15 15 15 15 14 14 14 14 14 13 13 13 13
21 21 21 20 20 20 19 19 18 18 18 17 17 17 17 17 17 17 17 16 16 16 16 16 16 15 15 15 15 15 15 15 15 14 14 14 14 14 13 13 13 13 13
21 21 20 20 20 19 19 19 18 18 18 17 17 17 17 17 17 16 16 16 16 16 16 16 15 15 15 15 15 15 14 14 14 14 14 14 14 13 13 13 13 13 13
20 20 20 20 19 19 19 18 18 18 17 17 17 17 17 16 16 16 16 15 15 15 15 15 15 15 15 14 14 14 14 14 14 14 14 14 13 13 13 13 13 12 12
20 20 20 19 19 19 19 18 18 18 17 17 17 16 16 16 16 16 16 15 15 15 15 15 15 15 15 14 14 14 14 14 14 13 13 13 13 13 13 12 12 12 12
20 20 19 19 19 19 19 18 18 17 17 17 16 16 16 16 16 15 15 15 15 15 15 15 15 14 14 14 14 14 13 13 13 13 13 13 13 13 12 12 12 12 12
19 19 19 19 19 18 18 18 17 17 17 16 16 16 16 16 16 15 15 15 15 15 15 15 15 14 14 14 14 13 13 13 13 13 13 13 12 12 12 12 12 12 12
19 19 18 18 18 18 18 17 17 17 16 16 16 16 16 16 15 15 15 15 15 14 14 14 14 14 14 14 13 13 13 13 12 12 12 12 12 12 12 12 12 12 11
18 18 18 18 18 17 17 17 17 16 16 16 16 16 16 15 15 15 15 15 14 14 14 14 14 14 14 13 13 13 13 12 12 12 12 12 12 12 12 11 11 11 11
18 18 18 18 17 17 17 17 17 16 16 16 16 15 15 15 15 15 15 14 14 14 14 14 14 13 13 13 13 13 13 12 12 12 12 12 12 12 11 11 11 11 11
18 17 17 17 17 17 17 17 16 16 16 16 16 15 15 15 15 15 14 14 14 14 14 13 13 13 13 13 13 12 12 12 12 12 11 11 11 11 11 11 11 11 11
17 17 17 17 17 17 16 16 16 16 16 15 15 15 15 15 14 14 14 14 14 14 13 13 13 13 13 13 12 12 12 12 12 11 11 11 11 11 11 11 11 10 10
16 16 16 16 16 16 16 16 16 15 15 15 15 15 15 14 14 14 14 14 13 13 13 13 13 13 13 12 12 12 12 12 11 11 11 11 11 11 10 10 10 10 10
16 16 16 16 16 16 15 15 15 15 15 15 15 14 14 14 14 13 13 13 13 13 13 13 13 13 12 12 12 12 12 11 11 11 11 11 10 10 10 10 10 10 9
15 15 15 15 15 15 15 15 15 15 15 14 14 14 14 14 13 13 13 13 13 13 13 12 12 12 12 12 12 12 11 11 11 11 11 10 10 10 10 10 10 9 9
15 15 15 15 15 14 14 14 14 14 14 14 14 14 14 13 13 13 13 13 13 12 12 12 12 12 12 12 11 11 11 11 11 10 10 10 10 10 10 10 9 9 9
14 14 14 14 14 14 14 14 14 14 14 14 14 13 13 13 13 13 13 13 12 12 12 12 12 12 12 12 11 11 11 10 10 10 10 10 10 10 9 9 9 9 9
13 13 13 13 13 13 13 13 13 13 13 13 13 13 13 13 13 13 12 12 12 12 12 12 12 12 11 11 11 11 11 10 10 10 10 9 9 9 9 9 9 9 8
13 13 13 13 13 13 13 13 13 13 13 13 13 13 13 12 12 12 12 12 12 12 12 12 12 12 11 11 11 11 10 10 10 10 10 9 9 9 9 9 9 8 8
13 13 13 13 13 13 13 13 12 12 12 12 12 12 12 12 12 12 12 12 12 12 12 12 12 11 11 11 11 10 10 10 10 9 9 9 9 9 9 9 8 8 8
13 13 13 13 13 13 12 12 12 12 12 12 12 12 12 12 12 12 12 12 11 11 11 11 11 11 11 11 10 10 10 10 9 9 9 9 9 9 9 8 8 8 8
12 12 12 12 12 12 12 12 12 12 12 12 12 12 11 11 11 11 11 11 11 11 11 11 11 11 10 10 10 10 10 9 9 9 9 9 9 9 8 8 8 7 7
Wind_Speed
8 7 5 5 5 4 4 4 3 3 2 2 2 2 2 2 2 1 1 1 0 1 1 0 1 1 1 1 0 0 0 1 2 3 2 2 1 1 2 1 2 2 2
8 6 6 5 4 4 4 4 3 3 3 3 2 2 2 2 2 2 1 1 1 1 1 1 2 1 1 1 1 1 1 1 2 2 2 1 2 2 1 1 1 2 2
7 7 6 5 5 5 5 4 3 3 3 2 2 3 3 2 2 2 2 1 2 2 2 1 2 0 1 1 1 1 1 1 1 2 2 1 1 1 1 1 1 2 2
8 7 7 6 6 6 5 4 4 3 3 3 3 3 3 3 2 2 2 2 1 1 1 1 1 1 2 2 2 2 1 0 0 1 1 1 1 1 0 1 2 2 2
8 8 8 7 6 5 4 4 3 3 3 3 3 2 2 3 2 3 3 2 2 1 1 1 1 2 2 2 1 1 1 1 1 1 1 1 1 1 1 1 2 2 3
8 9 7 6 6 5 5 4 4 3 3 3 3 3 3 3 3 4 3 3 3 2 2 2 2 2 1 1 1 1 1 2 2 2 2 2 3 2 1 1 1 2 3
7 7 7 7 6 6 5 4 4 4 3 3 3 3 3 3 4 4 4 3 3 3 3 2 2 2 1 1 2 2 2 2 4 4 3 4 3 4 3 2 2 2 3
5 6 6 6 6 5 5 5 4 4 4 4 4 3 3 3 4 4 4 3 3 3 3 3 3 3 2 1 2 2 3 3 3 3 4 6 5 4 4 4 3 2 2
4 5 6 7 6 6 6 5 4 4 4 4 3 4 3 3 3 4 4 2 2 3 4 3 3 3 3 2 2 3 4 4 4 4 5 5 4 3 3 1 1 0 2
5 6 6 6 6 6 6 5 4 4 4 3 3 3 4 4 5 5 4 2 2 3 3 3 4 4 4 3 3 3 4 5 4 3 3 3 2 2 2 3 3 2 1
3 3 4 5 6 6 5 4 4 4 3 3 3 3 3 4 5 5 5 3 3 3 3 3 4 5 5 5 4 4 6 5 3 2 2 2 2 1 2 2 3 3 3
2 2 3 4 5 4 4 4 4 4 4 3 3 3 3 3 4 5 5 6 5 4 4 4 4 6 5 5 4 5 5 3 1 1 1 2 2 2 2 2 2 3 3
1 1 2 2 3 4 5 5 4 4 4 4 4 4 3 3 3 5 5 6 5 4 4 5 5 5 4 4 5 5 3 2 1 1 2 3 2 2 1 1 2 1 2
0 1 1 2 3 3 4 4 4 4 4 4 4 4 3 3 3 3 2 3 4 3 3 4 4 4 3 3 3 2 2 2 2 2 2 2 1 1 1 1 1 1 1
0 1 2 2 3 3 3 3 4 5 6 6 5 5 5 5 6 7 5 4 3 3 1 1 1 1 1 2 2 1 1 1 1 1 1 1 1 1 1 1 1 0 0
1 2 2 2 2 3 2 1 1 2 4 6 7 6 6 7 6 6 6 6 5 4 3 1 2 2 2 2 2 2 1 1 2 2 1 1 1 2 1 1 1 1 1
2 3 2 2 2 3 3 3 3 2 2 3 5 6 6 6 6 5 5 4 3 4 2 3 3 3 3 2 2 2 2 2 2 1 1 2 2 2 1 1 1 1 2
2 3 3 3 3 3 3 4 4 4 3 3 3 4 5 5 5 5 4 3 1 1 3 3 3 3 3 3 3 2 2 2 2 2 2 2 1 1 1 2 2 2 2
2 3 3 3 2 3 3 3 3 3 3 2 1 2 3 3 3 3 4 3 3 3 4 4 3 3 3 3 3 2 2 2 2 2 2 2 2 1 2 2 2 3 2
3 4 3 2 2 2 2 2 3 4 4 3 3 3 2 2 1 2 3 3 4 4 4 4 4 3 3 3 3 2 2 2 2 2 2 2 2 2 2 2 2 2 3
3 3 3 2 2 2 2 3 3 3 4 4 4 4 5 4 4 5 5 5 5 5 5 4 4 3 3 3 2 2 2 2 2 2 2 2 2 2 2 2 2 2 2
2 2 2 2 2 2 2 3 3 3 3 3 2 2 5 3 4 4 4 5 5 4 4 4 3 3 4 4 4 3 3 3 3 2 2 2 2 2 2 1 2 2 2
2 2 2 3 3 3 3 3 3 3 3 3 3 2 3 4 4 4 4 4 3 3 2 2 3 2 2 3 4 4 5 5 4 4 3 3 2 2 2 2 2 2 2
3 3 3 3 3 3 3 3 3 3 3 3 3 3 3 3 3 4 3 3 2 2 2 2 2 3 3 3 2 3 3 4 4 4 4 3 3 2 2 2 2 2 2
2 3 3 3 3 3 3 3 3 3 3 3 3 3 3 3 3 2 2 1 1 1 2 2 2 2 3 3 2 2 3 3 3 2 2 2 3 3 2 2 2 1 2
2 3 3 3 2 3 3 3 3 3 3 3 3 3 3 3 2 2 1 1 1 1 1 0 1 1 2 2 2 2 3 3 2 2 2 2 2 1 1 1 1 1 1
Wind_Direction
189 193 194 191 187 185 193 208 210 211 199 194 192 175 186 196 192 174 207 205 183 288 310 348 295 298 340 331 328 18 171 171 230 283 280 288 287 297 318 294 287 270 264
191 187 191 188 180 187 202 212 207 205 205 201 183 173 185 192 195 188 209 239 207 241 277 302 293 304 324 299 299 289 263 215 201 256 289 296 274 273 271 298 306 308 279
180 181 186 188 189 201 208 210 206 204 205 193 167 171 186 194 196 197 194 212 216 219 230 230 257 250 304 292 285 279 269 281 207 203 267 285 295 306 323 319 334 323 312
177 180 186 195 197 202 206 206 207 200 193 190 181 185 189 190 193 198 197 207 224 236 229 222 239 223 242 262 271 269 259 264 227 194 262 291 296 295 7 320 327 328 318
180 188 197 199 196 194 199 205 204 198 200 187 182 193 197 197 210 202 199 202 205 224 249 243 248 253 258 247 264 255 226 213 214 220 254 303 299 299 272 278 296 310 312
184 196 198 193 193 197 203 203 196 197 195 180 188 193 209 230 221 202 190 202 200 200 230 257 266 270 286 301 312 282 210 200 209 213 232 246 260 248 237 242 277 325 306
187 194 193 192 195 201 201 194 198 198 190 194 204 199 212 227 214 206 197 193 205 215 221 235 268 294 281 282 304 323 312 260 209 204 223 238 238 228 209 228 239 249 265
182 188 186 187 193 193 191 196 199 191 192 205 210 208 212 236 218 210 201 201 211 227 225 217 226 262 268 252 261 292 291 287 264 234 227 240 239 227 208 208 216 244 295
182 189 190 188 190 192 198 204 198 186 194 206 207 205 209 239 226 219 207 202 218 240 243 237 227 242 264 245 230 263 286 290 289 276 254 253 246 233 207 159 170 97 311
200 198 191 185 186 193 201 200 190 185 200 204 214 217 214 231 237 233 218 197 221 249 260 254 243 248 260 249 227 232 258 276 294 307 305 297 274 242 198 187 189 194 265
211 195 192 190 194 196 194 183 174 183 188 194 213 230 226 230 239 238 225 211 219 235 245 254 252 247 254 258 241 232 243 259 274 275 283 300 315 285 239 218 204 195 211
193 181 197 202 199 190 174 179 178 177 185 204 218 239 246 242 237 242 236 230 227 231 247 250 250 246 246 256 258 263 256 259 259 277 286 285 283 273 266 256 250 239 230
150 193 209 208 198 184 181 188 189 189 196 211 214 230 252 260 255 246 240 242 237 238 252 254 260 259 259 265 268 272 264 230 220 241 256 258 256 261 279 306 309 311 316
146 246 221 206 205 195 188 192 195 203 209 212 215 225 237 247 250 254 255 257 257 256 269 270 270 269 268 278 292 294 256 230 218 231 250 258 272 302 299 284 274 316 340
235 256 240 223 206 202 203 207 206 210 209 206 216 216 218 237 243 231 223 235 230 231 229 292 293 303 308 308 303 290 280 287 263 263 249 265 275 282 284 298 284 304 281
231 266 247 239 227 203 197 248 309 225 229 222 218 214 226 235 240 232 230 229 226 203 165 224 252 253 248 243 250 271 270 259 260 251 246 246 256 262 269 295 300 237 256
239 260 259 244 230 211 201 204 234 293 306 259 243 234 227 224 220 218 220 221 212 174 184 225 236 236 234 227 229 239 248 247 245 239 242 251 253 257 252 247 261 282 274
270 265 259 242 226 221 216 216 214 220 251 274 279 260 242 226 215 210 195 147 153 187 218 226 233 234 228 224 231 235 241 242 237 240 240 249 248 248 256 258 250 251 266
285 275 273 259 238 228 221 214 218 218 222 238 271 289 262 227 206 202 165 176 205 226 232 236 234 232 229 227 230 225 221 228 233 235 244 248 242 230 253 260 260 259 265
287 288 290 275 252 228 219 214 223 219 219 223 230 234 200 153 190 211 204 212 219 230 232 233 235 232 223 217 213 215 225 231 237 243 253 251 246 232 236 247 258 264 266
286 293 294 292 246 223 215 211 221 221 217 221 230 221 188 195 211 216 216 220 224 228 230 228 229 230 221 209 203 202 206 223 235 240 242 246 241 243 246 243 251 258 268
256 260 271 263 250 233 227 223 215 219 221 220 225 214 197 206 216 219 222 226 228 230 227 221 223 223 216 207 199 199 208 222 233 239 242 248 249 245 244 243 253 261 271
248 245 249 254 245 235 230 222 216 213 223 221 208 204 206 220 227 222 222 226 227 227 232 224 216 225 225 207 202 205 210 222 227 221 227 241 242 236 232 234 238 245 265
244 240 235 245 247 240 232 231 224 212 210 216 213 206 206 215 222 226 223 221 221 232 242 230 207 203 211 216 213 205 206 210 210 215 217 220 225 228 223 225 235 241 251
234 237 237 239 241 240 231 226 222 213 209 214 215 207 206 207 213 221 220 208 192 212 229 215 201 200 201 196 193 200 192 180 183 193 203 206 211 214 215 220 236 263 270
226 228 236 237 232 230 219 213 217 213 207 205 199 197 201 195 191 198 197 186 163 160 189 213 149 144 152 162 172 162 154 150 155 162 168 180 186 207 202 222 237 246 255
Height
1530 1531 1532 1533 1534 1535 1535 1536 1536 1536 1537 1537 1536 1536 1535 1534 1534 1533 1532 1531 1530 1529 1529 1528 1527 1526 1525 1524 1523 1522 1522 1521 1519 1518 1518 1517 1516 1515 1514 1512 1511 1510 1508
1528 1529 1530 1531 1532 1533 1533 1534 1534 1535 1535 1535 1534 1534 1533 1533 1532 1531 1530 1530 1529 1528 1527 1526 1525 1524 1523 1522 1521 1520 1519 1519 1518 1516 1515 1515 1514 1513 1511 1510 1509 1508 1507
1525 1527 1528 1529 1530 1530 1531 1531 1532 1532 1532 1532 1532 1532 1531 1531 1530 1529 1529 1528 1527 1526 1525 1524 1523 1522 1521 1520 1519 1518 1517 1516 1516 1514 1513 1512 1511 1511 1510 1509 1508 1506 1505
1523 1525 1526 1527 1527 1528 1529 1529 1529 1530 1530 1530 1530 1529 1529 1528 1528 1527 1526 1526 1525 1524 1523 1522 1521 1520 1519 1518 1517 1516 1515 1514 1513 1512 1511 1510 1509 1508 1507 1506 1505 1504 1503
1521 1522 1523 1524 1525 1526 1526 1527 1527 1527 1528 1528 1528 1527 1527 1526 1525 1525 1524 1523 1522 1521 1521 1520 1519 1518 1517 1516 1515 1513 1512 1511 1510 1509 1508 1507 1506 1505 1505 1504 1503 1502 1500
1518 1519 1520 1521 1522 1523 1524 1524 1525 1525 1525 1525 1525 1525 1524 1524 1523 1522 1521 1521 1520 1519 1518 1517 1516 1515 1514 1513 1512 1511 1510 1509 1508 1507 1506 1504 1504 1503 1502 1502 1501 1499 1497
1515 1517 1518 1519 1520 1521 1521 1522 1522 1522 1522 1522 1522 1522 1521 1521 1520 1520 1519 1518 1517 1517 1516 1514 1513 1513 1512 1511 1509 1508 1507 1507 1506 1505 1503 1502 1501 1501 1500 1499 1498 1497 1496
1513 1514 1515 1516 1517 1518 1519 1519 1519 1519 1519 1519 1519 1519 1518 1518 1518 1517 1516 1515 1514 1514 1513 1512 1511 1510 1509 1508 1507 1505 1504 1504 1503 1502 1501 1500 1499 1498 1497 1497 1495 1494 1494
1511 1511 1512 1513 1514 1515 1515 1515 1516 1516 1516 1516 1516 1515 1515 1515 1515 1514 1514 1513 1511 1510 1510 1509 1508 1507 1506 1505 1504 1503 1502 1501 1501 1500 1499 1498 1497 1496 1495 1493 1492 1491 1490
1508 1508 1509 1510 1511 1511 1512 1512 1512 1513 1513 1513 1513 1512 1512 1511 1511 1511 1511 1509 1508 1507 1506 1506 1505 1504 1504 1502 1501 1500 1499 1498 1498 1496 1495 1495 1494 1492 1492 1491 1490 1489 1487
1505 1506 1507 1507 1508 1509 1509 1509 1509 1510 1510 1509 1509 1509 1509 1508 1508 1508 1507 1506 1505 1504 1503 1502 1502 1501 1501 1500 1498 1497 1496 1496 1495 1494 1493 1492 1491 1489 1488 1488 1487 1486 1485
1503 1503 1504 1505 1505 1506 1506 1506 1506 1506 1506 1506 1506 1505 1505 1505 1504 1504 1504 1503 1502 1501 1500 1499 1499 1498 1497 1496 1496 1494 1494 1493 1492 1491 1490 1489 1488 1487 1486 1485 1484 1483 1482
1500 1501 1501 1502 1502 1503 1503 1503 1503 1503 1503 1502 1502 1501 1501 1501 1501 1501 1500 1500 1499 1498 1497 1497 1496 1495 1494 1493 1492 1492 1491 1490 1489 1488 1487 1486 1486 1485 1484 1483 1482 1481 1480
1498 1498 1499 1499 1499 1499 1499 1499 1499 1499 1499 1498 1498 1497 1497 1497 1497 1497 1496 1496 1495 1494 1494 1493 1493 1492 1491 1490 1489 1488 1488 1487 1486 1485 1484 1484 1483 1482 1481 1480 1478 1477 1476
1496 1496 1496 1496 1496 1496 1496 1495 1495 1495 1496 1495 1495 1494 1493 1492 1493 1493 1493 1492 1491 1491 1491 1490 1489 1488 1487 1486 1486 1485 1485 1484 1483 1482 1482 1481 1480 1479 1478 1477 1476 1474 1473
1493 1493 1492 1492 1492 1492 1492 1492 1492 1492 1492 1492 1492 1491 1490 1490 1489 1489 1489 1488 1488 1488 1487 1485 1485 1484 1484 1483 1483 1482 1482 1481 1480 1480 1479 1478 1477 1476 1475 1474 1473 1471 1470
1490 1489 1489 1489 1489 1489 1488 1488 1488 1488 1488 1488 1488 1487 1487 1486 1486 1485 1485 1485 1484 1484 1483 1481 1481 1481 1480 1480 1480 1479 1479 1478 1478 1477 1476 1475 1474 1473 1472 1470 1470 1468 1467
1487 1486 1485 1485 1485 1485 1485 1485 1485 1484 1484 1483 1483 1483 1483 1482 1482 1482 1482 1481 1480 1479 1479 1478 1478 1477 1477 1477 1477 1476 1476 1475 1475 1474 1473 1472 1471 1470 1469 1468 1467 1466 1464
1483 1482 1482 1481 1481 1481 1481 1480 1480 1480 1480 1479 1479 1479 1479 1479 1479 1478 1478 1477 1476 1475 1475 1475 1474 1474 1474 1474 1473 1473 1473 1472 1471 1470 1470 1469 1468 1467 1466 1465 1464 1463 1462
1479 1478 1478 1477 1477 1477 1476 1476 1476 1475 1475 1474 1474 1474 1474 1474 1473 1473 1473 1473 1472 1472 1471 1471 1471 1471 1470 1470 1470 1469 1469 1468 1468 1467 1466 1465 1465 1464 1463 1462 1461 1460 1459
1475 1474 1474 1473 1473 1472 1472 1472 1472 1471 1470 1470 1470 1470 1470 1470 1469 1469 1469 1469 1468 1468 1468 1468 1467 1467 1466 1466 1466 1465 1465 1465 1464 1464 1463 1462 1462 1461 1460 1459 1458 1457 1456
1471 1471 1470 1470 1469 1469 1469 1468 1468 1467 1466 1466 1466 1466 1466 1466 1466 1465 1465 1464 1464 1464 1464 1464 1463 1463 1463 1462 1462 1461 1461 1461 1461 1460 1460 1459 1459 1458 1457 1456 1455 1454 1453
1468 1468 1467 1466 1466 1465 1465 1464 1464 1463 1463 1461 1462 1461 1461 1461 1462 1462 1461 1461 1461 1461 1461 1460 1460 1459 1459 1459 1458 1458 1457 1457 1457 1457 1456 1456 1455 1455 1454 1453 1452 1451 1450
1464 1464 1463 1463 1462 1461 1461 1461 1460 1460 1459 1458 1458 1457 1457 1457 1458 1458 1458 1457 1457 1457 1457 1456 1456 1456 1456 1455 1455 1455 1454 1454 1454 1454 1453 1452 1452 1451 1450 1449 1449 1448 1447
1461 1460 1459 1459 1458 1457 1457 1456 1456 1456 1456 1456 1455 1454 1454 1454 1454 1454 1454 1454 1453 1453 1453 1453 1452 1452 1452 1452 1452 1451 1451 1451 1451 1450 1450 1449 1449 1448 1447 1446 1446 1445 1445
1457 1456 1456 1455 1454 1454 1453 1453 1453 1453 1453 1452 1452 1452 1451 1451 1450 1451 1451 1451 1450 1450 1450 1449 1449 1449 1449 1449 1448 1448 1448 1448 1448 1448 1447 1447 1446 1445 1444 1444 1443 1443 1442